Regional Weather Roundup
Issued by NWS

Home | Current Version | Previous Version | Text Only | Print | Product List | Glossary On
Versions: 1 2 3 4 5 6 7 8 9 10 11 12 13 14 15 16 17 18 19 20 21 22 23 24 25 26
000
ASUS45 KREV 280310
RWRNV
NEVADA REGIONAL WEATHER ROUNDUP
NATIONAL WEATHER SERVICE RENO NV
800 PM PDT THU JUL 27 2017

NOTE: "FAIR" INDICATES FEW OR NO CLOUDS BELOW 12,000 FEET WITH NO
SIGNIFICANT WEATHER AND/OR OBSTRUCTIONS TO VISIBILITY.

NVZ001-003-004-280400-
WESTERN NEVADA

CITY           SKY/WX    TMP DP  RH WIND       PRES   REMARKS
RENO           PTCLDY    88  35  15 NE9       30.06S
CARSON CITY    FAIR      84  43  23 NW12      30.09S
MINDEN         FAIR      81  45  28 MISG      30.10R
FALLON         PTCLDY    86  36  16 NW3       30.02R
LOVELOCK       CLEAR     85  39  19 S5        30.02S
HAWTHORNE      MOCLDY    86  41  20 W16       30.04R
$$

NVZ002-CAZ072-073-280400-
NORTHERN AND CENTRAL SIERRA

CITY           SKY/WX    TMP DP  RH WIND       PRES   REMARKS
S. LAKE TAHOE  CLEAR     71  46  40 S5        30.23R
TRUCKEE        CLEAR     73  43  33 W8        30.22R
SQUAW VLY 8000   N/A     61  41  48 W6          N/A
SUSANVILLE     CLEAR     82  43  24 SW5       30.06R
MAMMOTH LAKES  FAIR      73  40  30 NW13      30.27R
BRIDGEPORT       N/A     73  44  35 CALM      30.23R
$$

NVZ030-031-036-280400-
NORTHERN NEVADA

CITY           SKY/WX    TMP DP  RH WIND       PRES   REMARKS
ELKO           CLEAR     82  35  18 NW6       30.10R
WINNEMUCCA     CLEAR     84  35  17 N5        30.06S
WENDOVER       PTCLDY    86  50  28 S10       30.04R
$$

NVZ035-037-280400-
CENTRAL NEVADA

CITY           SKY/WX    TMP DP  RH WIND       PRES   REMARKS
ELY            CLEAR     70  48  45 W6        30.20S
EUREKA           N/A     73  47  39 S3        30.16S
$$

NVZ013-014-280400-
SOUTH CENTRAL NEVADA

CITY           SKY/WX    TMP DP  RH WIND       PRES   REMARKS
TONOPAH          N/A    N/A N/A N/A MISG      30.11R
$$

NVZ017-020-022-280400-
SOUTHERN NEVADA

CITY           SKY/WX    TMP DP  RH WIND       PRES   REMARKS
LAS VEGAS      PTCLDY   101  53  20 E8        29.83R
N. LAS VEGAS   PTCLDY   100  50  18 SE10      29.82S
NELLIS AFB     CLEAR    101  52  19 E7        29.80R
HENDERSON      CLEAR     98  54  22 SE9       29.88R
MERCURY        CLEAR     94  39  14 W7        29.92R
$$




USA.gov is the U.S. government's official web portal to all federal, state and local government web resources and services.